[[{"header":{"parameterUnit":"m.s-1","parameterCategory":1,"la1":30.2991,"la2":30.254,"lo1":-89.0895,"lo2":-89.0444,"dx":0.0017,"dy":0.0017,"nx":28,"ny":28,"refTime":"2022-11-15T09:00:00:Z","depth":0,"parameterNumber":2,"parameterNumberName":"U-component_of_WINDS"},"data":[0,0,0,0,0,0,0,0,0,0,0,0,0,0,0,0,0,0,0,0,0,0,0,0,0,0,0,0,0,0,0,0,0,0,0,0,0,0,0,0,0,0,0,0,0,0,0,0,0,0,0,0,0,0,0,0,0,0,0.2166,0.2166,0,0.2136,0.2136,0.2136,0.2141,0.2142,0.2142,0.2143,0.2111,0.211,0.2108,0,0,0,0,0,0,0,0,0,0,0,0,0,0.2226,0.2225,0.2166,0.2166,0.2165,0.2136,0.2136,0.2136,0.2141,0.2142,0.2142,0.2143,0.2111,0.211,0.2108,0,0,0,0,0,0,0,0,0,0,0,0,0,0.2199,0.2225,0.2166,0.2164,0.2164,0.2136,0.2136,0.2135,0.2141,0.2142,0.2142,0.2143,0.2112,0.211,0.2108,0.2079,0,0,0.2102,0.2101,0,0,0,0,0,0,0,0,0.22,0.2197,0.2165,0.2165,0.2164,0.2143,0.2146,0.2117,0.2141,0.215,0.2143,0.2144,0.2121,0.2118,0.2111,0.2078,0.2077,0.2102,0.21,0.2099,0.2099,0,0,0,0,0,0,0,0.2202,0.2198,0.2154,0.2165,0.2164,0.2165,0.2162,0.214,0.2131,0.2149,0.2149,0.2146,0.2121,0.2113,0.211,0.2076,0.2102,0.21,0.2099,0.2098,0.2019,0.2018,0,0,0,0,0,0,0.2205,0.2199,0.2155,0.2153,0.2185,0.2163,0.216,0.2149,0.2131,0.2129,0.2145,0.2146,0.2116,0.2112,0.2109,0.2074,0.2099,0.2098,0.2096,0.202,0.2019,0.2018,0,0,0,0,0,0,0.2206,0.2201,0.2156,0.2176,0.2171,0.2161,0.2149,0.2148,0.214,0.2128,0.2127,0.2139,0.2116,0.2112,0.2087,0.2073,0.2097,0.2095,0.2021,0.2019,0.2018,0.2005,0,0,0,0,0,0,0.2208,0.2201,0.219,0.2176,0.217,0.2135,0.2148,0.2147,0.2137,0.2138,0.2122,0.212,0.2117,0.209,0.2085,0.2071,0.2093,0.2022,0.202,0.2019,0.2007,0.2004,0.2001,0,0,0,0,0,0.221,0.2188,0.219,0.2184,0.2156,0.2134,0.213,0.2127,0.2136,0.2125,0.2117,0.2121,0.2076,0.2087,0.2082,0.2067,0.2023,0.2021,0.2019,0.2008,0.2004,0.2001,0,0,0,0,0,0,0.22,0.2186,0.2188,0.216,0.2149,0.2135,0.2121,0.2123,0.2108,0.211,0.2106,0.2102,0.2077,0.207,0.2083,0.2039,0.2051,0.2047,0.2044,0.2041,0.2038,0.204,0.2092,0,0,0,0,0,0.2195,0.2178,0.2167,0.2143,0.2137,0.213,0.212,0.2119,0.2106,0.2101,0.2092,0.2079,0.2062,0.2051,0.2035,0.2006,0.2003,0.1994,0.1991,0.1988,0.1985,0.1969,0.1965,0.2011,0.2011,0.2011,0,0,0.2183,0.2173,0.2163,0.2141,0.2132,0.2114,0.2126,0.2107,0.2094,0.2098,0.2074,0.2067,0.2053,0.2026,0.2013,0.2019,0.1972,0.1986,0.1984,0.1982,0.1967,0.1963,0.1959,0.201,0.201,0.201,0,0,0.2153,0.2144,0.2124,0.2115,0.2101,0.2096,0.2091,0.2078,0.2073,0.205,0.2052,0.2037,0.2008,0.1998,0.1989,0.1956,0.1958,0.1951,0.1935,0.192,0.1916,0.1913,0.1901,0.1897,0.1948,0.1948,0.1948,0,0.214,0.2115,0.2113,0.2094,0.2084,0.2089,0.2068,0.2059,0.204,0.2033,0.204,0.2004,0.1994,0.1965,0.1957,0.195,0.1944,0.1952,0.1917,0.1914,0.1911,0.1899,0.1895,0.1947,0.1947,0.1948,0.1948,0,0.21,0.2082,0.2067,0.205,0.2039,0.2019,0.2014,0.2003,0.2003,0.1998,0.1973,0.1963,0.1944,0.1938,0.1937,0.1908,0.1912,0.1918,0.1929,0.1905,0.1895,0.189,0.1946,0.1946,0.1947,0.1947,0,0,0.2061,0.2044,0.2038,0.2031,0.2016,0.2002,0.1983,0.1966,0.1956,0.1943,0.1926,0.1903,0.1908,0.1898,0.1897,0.1883,0.1858,0.1891,0.1891,0.1885,0.1825,0.182,0.1815,0.186,0.1859,0.1859,0.1826,0,0.203,0.1996,0.1994,0.1963,0.1947,0.1951,0.1934,0.1923,0.1918,0.1903,0.1898,0.1881,0.189,0.1883,0.1871,0.1864,0.1846,0.1866,0.1844,0.1843,0.1847,0.181,0.1804,0.1774,0.1822,0.1821,0.1821,0,0.1988,0.1974,0.1942,0.193,0.1923,0.1908,0.1892,0.1878,0.1866,0.1863,0.1853,0.1853,0.1834,0.1847,0.1819,0.1833,0.1824,0.182,0.1818,0.1815,0.183,0.1805,0.1764,0.1759,0.1814,0.1815,0.1815,0,0.1962,0.1936,0.1913,0.1906,0.1892,0.1881,0.1875,0.1864,0.1854,0.184,0.1833,0.1818,0.1809,0.1797,0.1793,0.1803,0.1766,0.1778,0.1762,0.1762,0.1753,0.1754,0.171,0.1749,0.1749,0.1749,0.1749,0,0.1926,0.1906,0.1901,0.1887,0.1865,0.1864,0.1841,0.1836,0.1826,0.181,0.1813,0.1799,0.1796,0.1781,0.1778,0.1756,0.1752,0.1749,0.1748,0.1748,0.1748,0.1741,0.1743,0.1748,0.1748,0.1749,0.1749,0,0.1893,0.1889,0.1865,0.1854,0.1851,0.1834,0.1825,0.1811,0.1807,0.1788,0.1783,0.1777,0.1759,0.1755,0.1734,0.1732,0.1706,0.1707,0.171,0.1709,0.1693,0.1695,0.1643,0.1636,0.168,0.168,0.168,0,0.187,0.1855,0.1842,0.1832,0.1825,0.181,0.18,0.1798,0.1788,0.1773,0.1761,0.1744,0.173,0.1702,0.1696,0.168,0.1681,0.1664,0.1678,0.1679,0.168,0.168,0.1679,0.1661,0.166,0.166,0.1659,0,0.1829,0.1828,0.1814,0.1799,0.1787,0.1775,0.1764,0.1756,0.1753,0.1741,0.1723,0.1712,0.1692,0.1675,0.1659,0.1652,0.1655,0.1655,0.165,0.1649,0.1651,0.1649,0.1701,0.1656,0.1656,0.1657,0.1657,0.1657,0.18,0.1786,0.1776,0.176,0.1751,0.1741,0.1727,0.1722,0.1708,0.1691,0.1691,0.1672,0.1661,0.164,0.1632,0.1617,0.1622,0.1616,0.1614,0.1612,0.161,0.1655,0.1614,0.1615,0.1615,0.1615,0.1615,0,0.1758,0.1752,0.1737,0.1722,0.1709,0.1714,0.1702,0.1691,0.1674,0.1664,0.1651,0.1631,0.1615,0.1607,0.1591,0.1581,0.1581,0.1576,0.1576,0.1575,0.1607,0.1612,0.1576,0.1576,0.1576,0.1576,0.1576,0.1576,0.1735,0.1713,0.1711,0.1684,0.1678,0.166,0.1652,0.1643,0.1634,0.1612,0.1599,0.1594,0.1585,0.1569,0.1554,0.1553,0.1546,0.154,0.1539,0.1569,0.1573,0.1576,0.1581,0.1539,0.1539,0.1508,0.1508,0.1508]},{"header":{"parameterUnit":"m.s-1","parameterCategory":1,"la1":30.2991,"la2":30.254,"lo1":-89.0895,"lo2":-89.0444,"dx":0.0017,"dy":0.0017,"nx":28,"ny":28,"refTime":"2022-11-15T09:00:00:Z","depth":0,"parameterNumber":3,"parameterNumberName":"V-component_of_WINDS"},"data":[0,0,0,0,0,0,0,0,0,0,0,0,0,0,0,0,0,0,0,0,0,0,0,0,0,0,0,0,0,0,0,0,0,0,0,0,0,0,0,0,0,0,0,0,0,0,0,0,0,0,0,0,0,0,0,0,0,0,-6.5879,-6.588,0,-6.5979,-6.598,-6.5981,-6.5935,-6.5932,-6.5929,-6.5927,-6.6024,-6.6029,-6.6034,0,0,0,0,0,0,0,0,0,0,0,0,0,-6.5643,-6.5648,-6.5879,-6.588,-6.5882,-6.5979,-6.598,-6.5982,-6.5935,-6.5932,-6.5929,-6.5926,-6.6023,-6.6028,-6.6034,0,0,0,0,0,0,0,0,0,0,0,0,0,-6.5744,-6.5649,-6.5879,-6.587,-6.587,-6.5979,-6.598,-6.5982,-6.5936,-6.5932,-6.5928,-6.5925,-6.6021,-6.6028,-6.6035,-6.6156,0,0,-6.6058,-6.6061,0,0,0,0,0,0,0,0,-6.5739,-6.5753,-6.587,-6.5871,-6.5871,-6.5941,-6.5933,-6.604,-6.5937,-6.5911,-6.5927,-6.5923,-6.5999,-6.6008,-6.6035,-6.6161,-6.6165,-6.6058,-6.6063,-6.6066,-6.6068,0,0,0,0,0,0,0,-6.5732,-6.5748,-6.5918,-6.5872,-6.5873,-6.586,-6.587,-6.5953,-6.5975,-6.5913,-6.5909,-6.5922,-6.5999,-6.6028,-6.6037,-6.6166,-6.6058,-6.6065,-6.6069,-6.6072,-6.6397,-6.6401,0,0,0,0,0,0,-6.5726,-6.5743,-6.5915,-6.5921,-6.5795,-6.5867,-6.5878,-6.5922,-6.5974,-6.5978,-6.5925,-6.592,-6.6017,-6.6028,-6.604,-6.6186,-6.6066,-6.6073,-6.6077,-6.6393,-6.6398,-6.6403,0,0,0,0,0,0,-6.5721,-6.5741,-6.5911,-6.5831,-6.5852,-6.5875,-6.5924,-6.5926,-6.5955,-6.5983,-6.5986,-6.5952,-6.6015,-6.603,-6.6128,-6.6189,-6.6076,-6.6083,-6.6388,-6.6395,-6.64,-6.6479,0,0,0,0,0,0,-6.5714,-6.574,-6.5787,-6.5833,-6.5857,-6.5999,-6.5928,-6.5931,-6.5969,-6.5962,-6.6009,-6.6013,-6.6013,-6.6118,-6.6136,-6.6197,-6.6089,-6.6383,-6.6391,-6.6398,-6.6471,-6.6487,-6.6501,0,0,0,0,0,-6.5706,-6.5804,-6.579,-6.5811,-6.5916,-6.6003,-6.6016,-6.6016,-6.5974,-6.6021,-6.6039,-6.6011,-6.6179,-6.6128,-6.6148,-6.6212,-6.6379,-6.6389,-6.6398,-6.6464,-6.6484,-6.65,0,0,0,0,0,0,-6.5762,-6.5809,-6.5795,-6.5911,-6.5954,-6.5995,-6.6054,-6.6036,-6.6091,-6.6082,-6.6077,-6.6088,-6.6191,-6.6211,-6.6153,-6.6333,-6.6272,-6.6286,-6.6316,-6.6335,-6.6349,-6.6342,-6.6095,0,0,0,0,0,-6.5789,-6.5857,-6.5893,-6.5992,-6.6015,-6.6031,-6.6069,-6.6065,-6.6108,-6.6126,-6.6151,-6.6193,-6.6255,-6.6296,-6.6354,-6.6473,-6.6483,-6.6527,-6.6542,-6.6554,-6.6566,-6.6632,-6.6652,-6.6434,-6.6434,-6.6434,0,0,-6.5843,-6.5877,-6.592,-6.6004,-6.6037,-6.6107,-6.6046,-6.6122,-6.6173,-6.6136,-6.6232,-6.6252,-6.6298,-6.6408,-6.6457,-6.6428,-6.6629,-6.6566,-6.6576,-6.6582,-6.6643,-6.6664,-6.6683,-6.644,-6.6439,-6.6438,0,0,-6.5977,-6.601,-6.6097,-6.6131,-6.6183,-6.6193,-6.6214,-6.6259,-6.6272,-6.6368,-6.6342,-6.6402,-6.6509,-6.6543,-6.6575,-6.6724,-6.6701,-6.6743,-6.6821,-6.6885,-6.6902,-6.6917,-6.6971,-6.699,-6.6755,-6.6755,-6.6755,0,-6.6038,-6.6143,-6.6143,-6.6222,-6.6259,-6.6232,-6.6319,-6.6352,-6.6419,-6.6445,-6.6411,-6.6546,-6.6575,-6.6693,-6.673,-6.6756,-6.6779,-6.6738,-6.69,-6.6915,-6.6929,-6.698,-6.7001,-6.676,-6.676,-6.6759,-6.6759,0,-6.6215,-6.6289,-6.6352,-6.642,-6.6465,-6.6547,-6.6559,-6.6604,-6.6596,-6.661,-6.6708,-6.6743,-6.6808,-6.6836,-6.6828,-6.6953,-6.6933,-6.69,-6.6839,-6.6955,-6.7003,-6.7023,-6.6767,-6.6765,-6.6764,-6.6763,0,0,-6.6387,-6.6456,-6.6479,-6.6511,-6.6566,-6.6622,-6.6702,-6.6769,-6.6808,-6.6855,-6.6922,-6.7015,-6.6985,-6.7021,-6.7016,-6.7072,-6.7189,-6.7032,-6.7033,-6.7061,-6.733,-6.7355,-6.7378,-6.7174,-6.7178,-6.7181,-6.7326,0,-6.6527,-6.6671,-6.6674,-6.6805,-6.6873,-6.6848,-6.6918,-6.6959,-6.6974,-6.7033,-6.7048,-6.7115,-6.707,-6.7091,-6.7145,-6.7164,-6.7243,-6.7153,-6.7236,-6.7239,-6.7226,-6.7403,-6.7429,-6.7565,-6.7345,-6.7348,-6.735,0,-6.6708,-6.6764,-6.6904,-6.695,-6.6979,-6.7042,-6.7104,-6.7161,-6.7206,-6.7213,-6.7255,-6.7242,-6.7324,-6.7261,-6.7373,-6.7311,-6.7345,-6.7359,-6.7364,-6.7372,-6.7302,-6.7416,-6.7608,-6.7628,-6.738,-6.7377,-6.7375,0,-6.6821,-6.6931,-6.7029,-6.7056,-6.7113,-6.7158,-6.7183,-6.7226,-6.7266,-6.7319,-6.7345,-6.7406,-6.7439,-6.7486,-6.7491,-6.7445,-6.7604,-6.7541,-6.7611,-6.7611,-6.7646,-6.7644,-6.7847,-6.7667,-6.7667,-6.7666,-6.7666,0,-6.6977,-6.7063,-6.7081,-6.7141,-6.7237,-6.7238,-6.7333,-6.7354,-6.7392,-6.7455,-6.7436,-6.7495,-6.7497,-6.7557,-6.7561,-6.7653,-6.7668,-6.7675,-6.7675,-6.7678,-6.7677,-6.77,-6.7691,-6.7672,-6.7671,-6.7669,-6.7669,0,-6.7119,-6.7134,-6.7239,-6.7285,-6.7299,-6.7368,-6.7406,-6.7463,-6.7477,-6.7557,-6.7576,-6.7597,-6.7667,-6.7676,-6.7757,-6.7759,-6.7871,-6.786,-6.7856,-6.7855,-6.7925,-6.7919,-6.815,-6.8181,-6.7981,-6.7983,-6.7984,0,-6.7217,-6.7284,-6.7338,-6.738,-6.7408,-6.7476,-6.7518,-6.7521,-6.7565,-6.7623,-6.7673,-6.7742,-6.7797,-6.791,-6.7931,-6.7993,-6.7984,-6.8061,-6.7993,-6.7994,-6.7986,-6.7983,-6.7989,-6.8074,-6.8077,-6.8078,-6.808,0,-6.7391,-6.7396,-6.7458,-6.7523,-6.7574,-6.7625,-6.7673,-6.7708,-6.7717,-6.7767,-6.784,-6.7884,-6.7968,-6.8036,-6.8098,-6.8121,-6.8103,-6.8101,-6.8121,-6.8124,-6.8119,-6.8124,-6.7893,-6.8096,-6.8094,-6.8093,-6.8092,-6.8092,-6.7515,-6.7573,-6.7621,-6.7691,-6.7728,-6.7773,-6.783,-6.7852,-6.7913,-6.7984,-6.7982,-6.8062,-6.8105,-6.8187,-6.8215,-6.8277,-6.8252,-6.828,-6.8287,-6.8294,-6.8302,-6.8109,-6.8288,-6.8288,-6.8287,-6.8287,-6.8286,0,-6.7688,-6.7718,-6.7783,-6.7852,-6.7907,-6.7886,-6.7938,-6.7985,-6.8057,-6.81,-6.8156,-6.8239,-6.8306,-6.8333,-6.8398,-6.8442,-6.8435,-6.8459,-6.8456,-6.8462,-6.832,-6.8297,-6.8464,-6.8464,-6.8464,-6.8464,-6.8464,-6.8464,-6.7785,-6.7883,-6.7894,-6.801,-6.8038,-6.8119,-6.815,-6.8192,-6.8227,-6.8322,-6.8379,-6.8397,-6.8434,-6.8501,-6.8561,-6.8567,-6.8592,-6.862,-6.8623,-6.849,-6.8472,-6.8455,-6.8433,-6.8626,-6.8626,-6.8759,-6.876,-6.8761]}]]